Regional Weather Roundup
Issued by NWS

Home | Current Version | Previous Version | Graphics & Text | Print | Product List | Glossary On
Versions: 1 2 3 4 5 6 7 8 9 10 11 12 13 14 15 16 17 18 19 20 21 22 23 24 25 26 27 28 29 30 31 32 33 34 35 36 37 38 39 40 41 42 43 44 45 46 47 48 49 50
000
ASUS45 KPSR 271110
RWRAZ

ARIZONA REGIONAL HOURLY WEATHER ROUNDUP
NATIONAL WEATHER SERVICE TUCSON AZ
400 AM MST TUE JUN 27 2017

NOTE: FAIR INDICATES FEW OR NO CLOUDS BELOW 12,000 FEET WITH NO
SIGNIFICANT WEATHER AND/OR OBSTRUCTIONS TO VISIBILITY.

AZZ001>003-036-271200-
NORTHWEST ARIZONA

CITY           SKY/WX    TMP DP  RH WIND       PRES   REMARKS
BULLHEAD CITY  CLEAR     93  28  10 VRB3      29.72S
KINGMAN        CLEAR     75  26  16 S14       29.93S
$$

AZZ004>008-015-016-018-271200-
NORTH CENTRAL ARIZONA

CITY           SKY/WX    TMP DP  RH WIND       PRES   REMARKS
GRAND CANYON   CLEAR     43  23  45 CALM      30.19F
PRESCOTT       CLEAR     65  30  27 S8        30.09S
FLAGSTAFF      CLEAR     48  26  42 CALM      30.23F
PAYSON         SUNNY     73  32  21 SE6       30.14S
PAGE           CLEAR     77  25  14 SW5       29.96S
$$

AZZ009>014-017-271200-
NORTHEAST ARIZONA

CITY           SKY/WX    TMP DP  RH WIND       PRES   REMARKS
WINSLOW        CLEAR     61  30  31 E5        30.08S
SAINT JOHNS    PTCLDY    68  41  37 S5        30.16S
WINDOW ROCK    CLEAR     57  38  48 CALM      30.23S
SHOW LOW       CLEAR     66  39  37 S12       30.23S
$$

AZZ023-271200-
GREATER PHOENIX AREA

CITY           SKY/WX    TMP DP  RH WIND       PRES   REMARKS
PHOENIX        PTCLDY    92  37  14 E7        29.77S
BUCKEYE        SUNNY     81  30  16 N3        29.78F
LUKE AFB       CLEAR     89  36  15 SW3       29.76F
DEER VALLEY    CLEAR     82  35  18 CALM      29.80R
SCOTTSDALE     CLEAR     88  39  17 E5        29.82R
MESA-GATEWAY   CLEAR     81  45  28 SE7       29.83R
$$

AZZ027-028-271200-
SOUTHWEST MARICOPA COUNTY AND PINAL COUNTY

CITY           SKY/WX    TMP DP  RH WIND       PRES   REMARKS
CASA GRANDE    CLEAR     82  39  21 CALM      29.84S
$$

AZZ503-504-507>509-271200-
SOUTHEAST ARIZONA

CITY           SKY/WX    TMP DP  RH WIND       PRES   REMARKS
TUCSON         CLEAR     83  53  35 S7        29.97R
DAVIS-MONTHAN  CLEAR     79  52  38 S8        29.96R
NOGALES        PTCLDY    72  58  61 CALM      30.08R
SIERRA VISTA   CLEAR     71  44  38 SE7       30.13S
DOUGLAS        CLEAR     73  56  54 E9        30.08F
SAFFORD        CLEAR     78  48  34 E9        29.97F
$$

AZZ020-021-025-026-031-271200-
SOUTHWEST ARIZONA

CITY           SKY/WX    TMP DP  RH WIND       PRES   REMARKS
YUMA           CLEAR     88  27  11 SW6       29.75R
$$

CAZ031-033-041-043-047-048-061-271200-
SOUTHERN CALIFORNIA

CITY           SKY/WX    TMP DP  RH WIND       PRES   REMARKS
DOWNTOWN L.A.  CLEAR     67  56  67 CALM      29.85F
L.A. AIRPORT   CLEAR     64  60  87 S3        29.86S
SAN DIEGO      PTCLDY    67  65  93 CALM      29.88R
BURBANK        CLEAR     71  48  43 N6        29.87S
ONTARIO        CLEAR     70  49  47 CALM      29.89S
RIVERSIDE      CLEAR     69  47  45 CALM      29.89S
PALM SPRINGS   CLEAR     86  34  15 W3        29.75S
EL CENTRO NAS  CLEAR     80  19  10 W8        29.75S
IMPERIAL       CLEAR     82  34  17 W3        29.73R
BLYTHE         CLEAR     88  33  14 SW10      29.73S
NEEDLES        CLEAR     92  26   9 CALM      29.75R
$$

NVZ020-UTZ003-271200-
SOUTHERN NEVADA-UTAH

CITY           SKY/WX    TMP DP  RH WIND       PRES   REMARKS
LAS VEGAS      CLEAR     85  21   9 SW9       29.78R
SALT LAKE CITY CLEAR     73  44  35 W7        29.86S
$$

NMZ009-TXZ055-271200-
NEW MEXICO-WEST TEXAS

CITY           SKY/WX    TMP DP  RH WIND       PRES   REMARKS
ALBUQUERQUE    LGT RAIN  65  53  65 SE7       30.19S
EL PASO        PTCLDY    71  61  70 CALM      30.13R
$$


........................KEY........................
SKY/WX - SKY CONDITION/WEATHER
TMP    - TEMPERATURE IN FAHRENHEIT
DP     - DEWPOINT IN FAHRENHEIT
RH     - RELATIVE HUMIDITY IN PERCENT
WIND   - DIRECTION AND SPEED IN MILES PER HOUR (MPH)
VRB    - VARIABLE WIND DIRECTION
PRES   - MEAN SEA LEVEL PRESSURE IN INCHES OF MERCURY
         F - FALLING PRESSURE   R - RISING PRESSURE
         S - STEADY PRESSURE
VSB    - VISIBILITY IN MILES
HX     - HEAT INDEX IN FAHRENHEIT
WCI    - WIND CHILL INDEX IN FAHRENHEIT
TC     - TEMPERATURE IN CELSIUS WHICH IS ALSO KNOWN AS
         TEMPERATURE IN CENTIGRADE
AFB    - AIR FORCE BASE
         LUKE AFB IS LUKE AIR FORCE BASE
         DAVIS-MONTHAN IS DAVIS-MONTHAN AIR FORCE BASE
NAS    - NAVAL AIR STATION
         EL CENTRO NAS IS EL CENTRO NAVAL AIR STATION
N/A    - NOT AVAILABLE




USA.gov is the U.S. government's official web portal to all federal, state and local government web resources and services.